Погода в Кедири

Индонезия     7°49′16″S   111°59′56″E
темп.,
°C
ветер,
м/с
пор.,
м/с
влажн.,
%
обл.,
%
осадки,
мм/ч
давл.,
гПа
погр.,
м
2 марта, вт
вт201:00+23сз129394 0.7 101032
04:00+23с119233 0.0 100928
07:00+25ссв118750 0.0 1010117
10:00+29с347120 0.0 1011749
13:00+30ссз346831 1.8 1008986
16:00+28с248498 6.5 1007270
19:00+25ссз128999 9.1 101044
22:00+24сз1289100 0.3 101245
3 марта, ср
ср301:00+23зюз019095 0.4 101025
04:00+23ююв019095 0.1 100924
07:00+24св008688 0.1 101085
10:00+30св116715 0.0 1011664
13:00+31ссз336724 0.7 1008904
16:00+28сз368084 2.9 1008529
19:00+25зсз228892 5.8 101051
22:00+24с129086 0.4 101249
4 марта, чт
чт401:00+23с239273 0.4 101170
04:00+23сз1292100 0.0 101138
07:00+25всв018690 0.0 1012125
10:00+28вюв1172100 0.0 1012622
13:00+31с116393 1.0 10091147
16:00+26ю468694 5.1 1008182
19:00+24ю489097 7.6 1011254
22:00+23ююз3892100 0.0 1012219
5 марта, пт
пт501:00+22ююз239098 0.0 101174
04:00+22ююз128690 0.0 101029
07:00+24ююз228273 0.0 1012136
10:00+27ю2475100 0.0 1012555
13:00+29ю346699 0.1 1009829
16:00+28ю467571 1.3 1007544
19:00+24ююз478378 2.6 1010173
22:00+24ююз2384100 0.1 101160
6 марта, сб
сб601:00+23с018770 0.1 101024
04:00+23сз119153 0.0 100927
07:00+24с128876 0.0 1011145
10:00+29с337489 1.0 1010779
13:00+30с337451 6.3 1008860
16:00+26с478895 11.4 1008303
19:00+24юз019098 12.9 101131
22:00+23юз129099 0.3 101232